This demonstration page uses our WeatherBlox Daily Observations layout. Learn more.

39.92423, -83.80882

Hourly Observations for April 23, 2019

Temp ( °F °C ) Dew Point ( °F °C ) Humidity (%) Winds ( mph kmh ) Pressure ( in mb ) Visibility ( mi km ) Precip ( " mm )
12:56 am 00:56 Clear 59 15 44 6.7 58 58 S 8 13 30.05 1018 10 16.0934 0 0
1:56 am 01:56 Clear 59 15 42 5.6 54 54 SSE 9 15 30.03 1017 10 16.0934 0 0
2:56 am 02:56 Clear 56 13.3 44 6.7 65 65 SSE 7 11 30.01 1016 10 16.0934 0 0
3:39 am 03:39 Clear with Nearby Thunderstorms 57 14 45 7 63 63 Calm 30.03 1017 10 16.0934 0.01 0.254
3:43 am 03:43 Clear with Nearby Thunderstorms 57 14 45 7 63 63 SSE 6 9 30.03 1017 10 16.0934 0.02 0.508
3:54 am 03:54 Mostly Clear 57 14 45 7 63 63 S 5 7 30.02 1016 10 16.0934 0.02 0.508
3:56 am 03:56 Mostly Clear with Rain 59 15 44 6.7 58 58 S 3 6 30.01 1016 10 16.0934 0.02 0.508
4:24 am 04:24 Mostly Cloudy with Nearby Thunderstorms 57 14 45 7 63 63 S 6 9 30 1016 10 16.0934 0 0.0254
4:42 am 04:42 Partly Cloudy 57 14 45 7 63 63 S 9 15 29.99 1015 10 16.0934 0 0.0254
4:56 am 04:56 Clear 59 15 44 6.7 58 58 S 9 15 29.98 1015 10 16.0934 0 0.0254
5:56 am 05:56 Mostly Cloudy 58 14.4 44 6.7 60 60 S 10 17 29.97 1015 10 16.0934 0 0
6:56 am 06:56 Mostly Cloudy 58 14.4 46 7.8 65 65 S 9 15 29.96 1014 10 16.0934 0 0
7:56 am 07:56 Cloudy 59 15 47 8.3 64 64 SSW 10 17 29.95 1014 10 16.0934 0 0
8:56 am 08:56 Cloudy 61 16.1 49 9.4 65 65 SSW 13 20 29.95 1014 10 16.0934 0 0
9:56 am 09:56 Cloudy 65 18.3 53 11.7 66 66 WSW 14 22 29.95 1014 10 16.0934 0 0
10:56 am 10:56 Cloudy 67 19.4 55 12.8 66 66 WSW 17 28 29.93 1014 10 16.0934 0 0
11:56 am 11:56 Cloudy 70 21.1 58 14.4 66 66 WSW 20 31 29.93 1014 10 16.0934 0 0
12:56 pm 12:56 Cloudy 72 22.2 60 15.6 66 66 W 16 26 29.93 1013 10 16.0934 0 0
1:56 pm 13:56 Cloudy 71 21.7 60 15.6 68 68 W 17 28 29.92 1013 10 16.0934 0 0
2:56 pm 14:56 Cloudy 72 22.2 59 15 64 64 W 21 33 29.92 1013 10 16.0934 0.01 0.254
3:56 pm 15:56 Cloudy 70 21.1 60 15.6 71 71 NW 18 30 29.93 1013 10 16.0934 0 0
4:56 pm 16:56 Partly Cloudy 68 20 57 13.9 68 68 NW 15 24 29.93 1014 10 16.0934 0 0
5:56 pm 17:56 Partly Cloudy 64 17.8 55 12.8 73 73 NW 16 26 29.96 1014 10 16.0934 0 0
6:04 pm 18:04 Mostly Cloudy 64 18 55 13 73 73 NW 18 30 29.94 1014 10 16.0934 0 0
6:11 pm 18:11 Partly Cloudy 64 18 55 13 73 73 WNW 17 28 29.94 1014 10 16.0934 0 0
6:56 pm 18:56 Mostly Sunny 62 16.7 54 12.2 75 75 NW 17 28 29.96 1015 10 16.0934 0 0
7:56 pm 19:56 Sunny 59 15 52 11.1 78 78 NW 15 24 29.96 1015 10 16.0934 0 0
8:56 pm 20:56 Clear 56 13.3 51 10.6 84 84 NW 10 17 29.98 1015 10 16.0934 0 0
9:56 pm 21:56 Clear 55 12.8 49 9.4 80 80 NW 12 19 30 1016 10 16.0934 0.01 0.254
10:56 pm 22:56 Clear 53 11.7 47 8.3 80 80 NW 10 17 30.01 1016 10 16.0934 0.01 0.254
11:56 pm 23:56 Clear 50 10 45 7.2 83 83 NNW 10 17 30.01 1016 10 16.0934 0 0

Powered by AerisWeather